When you browse on this site, cookies collect data to enhance your experience and personalize the content and advertising you see.
Visit our Privacy Policy to learn more. By continuing to use the site, you agree to this use of cookies and data.
  • In United Kingdom
  • List of Countries
  • For 7 days
  • Water Temperature
  • Weather Map
  • Weather Widgets
  • user-avatar
    Login

    Hourly Weather Pylypenkove

    Today, 20 September, Friday

    Time Temperature Precipitation Wind Pressure Humidity
    00:00 +5°C° 0 mm 3 mps 740 mmHg 83%
    01:00 +4°C° 0 mm 3 mps 740 mmHg 85%
    02:00 +4°C° 0 mm 3 mps 741 mmHg 88%
    03:00 +4°C° 0 mm 3 mps 741 mmHg 90%
    04:00 +3°C° 0 mm 3 mps 740 mmHg 91%
    05:00 +3°C° 0 mm 3 mps 740 mmHg 93%
    06:00 +4°C° 0 mm 4 mps 740 mmHg 87%
    07:00 +6°C° 0 mm 4 mps 740 mmHg 82%
    08:00 +7°C° 0 mm 4 mps 741 mmHg 75%
    09:00 +8°C° 0.1 mm 5 mps 741 mmHg 67%
    10:00 +10°C° 0.1 mm 5 mps 740 mmHg 59%
    11:00 +11°C° 0.1 mm 6 mps 740 mmHg 52%
    12:00 +11°C° 0.3 mm 6 mps 740 mmHg 52%
    13:00 +11°C° 0.3 mm 7 mps 740 mmHg 51%
    14:00 +12°C° 0.3 mm 7 mps 740 mmHg 51%
    15:00 +11°C° 0.1 mm 7 mps 740 mmHg 52%
    16:00 +10°C° 0.1 mm 6 mps 740 mmHg 54%
    17:00 +9°C° 0.1 mm 5 mps 740 mmHg 55%
    18:00 +8°C° 0 mm 4 mps 740 mmHg 60%
    19:00 +8°C° 0 mm 3 mps 741 mmHg 65%
    20:00 +5°C° 0 mm 3 mps 741 mmHg 71%
    21:00 +5°C° 0 mm 3 mps 741 mmHg 74%
    22:00 +4°C° 0 mm 3 mps 741 mmHg 77%
    23:00 +3°C° 0 mm 4 mps 741 mmHg 80%

    Tomorrow, 21 September, Saturday

    Time Temperature Precipitation Wind Pressure Humidity
    00:00 +3°C° 0 mm 4 mps 741 mmHg 81%
    01:00 +3°C° 0 mm 4 mps 742 mmHg 82%
    02:00 +1°C° 0 mm 4 mps 742 mmHg 83%
    03:00 +1°C° 0 mm 4 mps 742 mmHg 86%
    04:00 0°C° 0 mm 4 mps 742 mmHg 88%
    05:00 +1°C° 0 mm 3 mps 742 mmHg 91%
    06:00 +1°C° 0 mm 4 mps 743 mmHg 83%
    07:00 +3°C° 0 mm 4 mps 743 mmHg 75%
    08:00 +5°C° 0 mm 4 mps 743 mmHg 67%
    09:00 +7°C° 0 mm 4 mps 743 mmHg 58%
    10:00 +9°C° 0 mm 5 mps 744 mmHg 48%
    11:00 +12°C° 0 mm 5 mps 744 mmHg 39%
    12:00 +12°C° 0 mm 5 mps 743 mmHg 38%
    13:00 +13°C° 0 mm 5 mps 743 mmHg 36%
    14:00 +14°C° 0 mm 5 mps 743 mmHg 34%
    15:00 +13°C° 0 mm 5 mps 742 mmHg 41%
    16:00 +13°C° 0 mm 6 mps 742 mmHg 48%
    17:00 +11°C° 0 mm 6 mps 742 mmHg 55%
    18:00 +10°C° 0 mm 6 mps 742 mmHg 62%
    19:00 +10°C° 0 mm 5 mps 742 mmHg 68%
    20:00 +9°C° 0 mm 5 mps 742 mmHg 74%
    21:00 +9°C° 0.1 mm 5 mps 742 mmHg 77%
    22:00 +9°C° 0.1 mm 5 mps 741 mmHg 79%
    23:00 +10°C° 0.1 mm 5 mps 741 mmHg 81%

    Day after tomorrow, 22 September, Sunday

    Time Temperature Precipitation Wind Pressure Humidity
    00:00 +10°C° 0 mm 5 mps 741 mmHg 81%
    01:00 +10°C° 0 mm 5 mps 741 mmHg 81%
    02:00 +10°C° 0 mm 5 mps 741 mmHg 80%
    03:00 +10°C° 0 mm 5 mps 741 mmHg 78%
    04:00 +10°C° 0 mm 5 mps 741 mmHg 77%
    05:00 +10°C° 0 mm 5 mps 741 mmHg 75%
    06:00 +10°C° 0 mm 5 mps 741 mmHg 72%
    07:00 +12°C° 0 mm 5 mps 741 mmHg 69%
    08:00 +11°C° 0 mm 6 mps 741 mmHg 66%
    09:00 +14°C° 0 mm 6 mps 741 mmHg 61%
    10:00 +16°C° 0 mm 6 mps 741 mmHg 56%
    11:00 +17°C° 0 mm 6 mps 741 mmHg 50%
    12:00 +19°C° 0 mm 6 mps 740 mmHg 48%
    13:00 +20°C° 0 mm 6 mps 740 mmHg 46%
    14:00 +21°C° 0 mm 6 mps 740 mmHg 45%
    15:00 +20°C° 0 mm 5 mps 739 mmHg 47%
    16:00 +20°C° 0 mm 4 mps 739 mmHg 49%
    17:00 +20°C° 0 mm 4 mps 739 mmHg 51%
    18:00 +18°C° 0 mm 3 mps 739 mmHg 58%
    19:00 +16°C° 0 mm 3 mps 739 mmHg 65%
    20:00 +13°C° 0 mm 3 mps 739 mmHg 72%
    21:00 +12°C° 0 mm 3 mps 739 mmHg 75%
    22:00 +12°C° 0 mm 3 mps 739 mmHg 78%
    23:00 +12°C° 0 mm 2 mps 739 mmHg 81%

    23 September, Monday

    Time Temperature Precipitation Wind Pressure Humidity
    00:00 +12°C° 0 mm 2 mps 739 mmHg 84%
    01:00 +10°C° 0 mm 2 mps 739 mmHg 86%
    02:00 +10°C° 0 mm 2 mps 739 mmHg 88%
    03:00 +10°C° 0 mm 2 mps 739 mmHg 90%
    04:00 +9°C° 0 mm 2 mps 739 mmHg 92%
    05:00 +9°C° 0 mm 2 mps 739 mmHg 94%
    06:00 +10°C° 0 mm 2 mps 739 mmHg 90%
    07:00 +11°C° 0 mm 3 mps 740 mmHg 86%
    08:00 +12°C° 0 mm 3 mps 740 mmHg 83%
    09:00 +13°C° 0 mm 3 mps 740 mmHg 75%
    10:00 +16°C° 0 mm 3 mps 740 mmHg 67%
    11:00 +18°C° 0 mm 3 mps 740 mmHg 60%
    12:00 +18°C° 0 mm 4 mps 740 mmHg 57%
    13:00 +19°C° 0 mm 4 mps 739 mmHg 55%
    14:00 +19°C° 0 mm 4 mps 739 mmHg 52%
    15:00 +19°C° 0 mm 4 mps 738 mmHg 54%
    16:00 +19°C° 0 mm 4 mps 738 mmHg 55%
    17:00 +18°C° 0 mm 4 mps 738 mmHg 56%
    18:00 +17°C° 0 mm 4 mps 738 mmHg 61%
    19:00 +14°C° 0 mm 4 mps 738 mmHg 65%
    20:00 +13°C° 0 mm 4 mps 737 mmHg 69%
    21:00 +12°C° 0 mm 4 mps 737 mmHg 69%
    22:00 +12°C° 0 mm 4 mps 737 mmHg 70%
    23:00 +11°C° 0 mm 4 mps 737 mmHg 70%

    24 September, Tuesday

    Time Temperature Precipitation Wind Pressure Humidity
    00:00 +11°C° 0 mm 4 mps 737 mmHg 70%
    01:00 +11°C° 0 mm 4 mps 737 mmHg 71%
    02:00 +11°C° 0 mm 3 mps 737 mmHg 71%
    03:00 +11°C° 0 mm 3 mps 736 mmHg 71%
    04:00 +11°C° 0 mm 3 mps 736 mmHg 71%
    05:00 +12°C° 0 mm 2 mps 736 mmHg 71%
    06:00 +12°C° 0 mm 3 mps 736 mmHg 69%
    07:00 +13°C° 0 mm 3 mps 736 mmHg 67%
    08:00 +14°C° 0 mm 3 mps 736 mmHg 66%
    09:00 +17°C° 0 mm 3 mps 736 mmHg 60%
    10:00 +18°C° 0 mm 3 mps 737 mmHg 55%
    11:00 +20°C° 0 mm 2 mps 737 mmHg 49%
    12:00 +20°C° 0 mm 2 mps 736 mmHg 47%
    13:00 +20°C° 0 mm 3 mps 736 mmHg 46%
    14:00 +20°C° 0 mm 3 mps 736 mmHg 44%
    15:00 +19°C° 0 mm 2 mps 736 mmHg 47%
    16:00 +18°C° 0 mm 2 mps 735 mmHg 51%
    17:00 +18°C° 0 mm 1 mps 735 mmHg 55%
    18:00 +18°C° 0 mm 1 mps 735 mmHg 59%
    19:00 +16°C° 0 mm 1 mps 735 mmHg 64%
    20:00 +16°C° 0 mm 1 mps 736 mmHg 69%
    21:00 +15°C° 0 mm 2 mps 736 mmHg 72%
    22:00 +15°C° 0 mm 2 mps 736 mmHg 76%
    23:00 +15°C° 0 mm 2 mps 736 mmHg 79%

    25 September, Wednesday

    Time Temperature Precipitation Wind Pressure Humidity
    00:00 +14°C° 0.1 mm 2 mps 736 mmHg 80%
    01:00 +14°C° 0.1 mm 1 mps 736 mmHg 81%
    02:00 +14°C° 0.1 mm 1 mps 735 mmHg 83%
    03:00 +14°C° 0 mm 1 mps 735 mmHg 83%
    04:00 +14°C° 0 mm 1 mps 735 mmHg 84%
    05:00 +14°C° 0 mm 1 mps 735 mmHg 84%
    06:00 +14°C° 0 mm 1 mps 736 mmHg 81%
    07:00 +14°C° 0 mm 2 mps 736 mmHg 78%
    08:00 +15°C° 0 mm 2 mps 736 mmHg 75%
    09:00 +16°C° 0 mm 2 mps 736 mmHg 70%
    10:00 +17°C° 0 mm 2 mps 736 mmHg 65%
    11:00 +18°C° 0 mm 2 mps 737 mmHg 61%
    12:00 +18°C° 0.1 mm 2 mps 736 mmHg 61%
    13:00 +18°C° 0.1 mm 2 mps 736 mmHg 62%
    14:00 +18°C° 0.1 mm 2 mps 736 mmHg 62%
    15:00 +17°C° 0.1 mm 2 mps 736 mmHg 63%
    16:00 +18°C° 0.1 mm 1 mps 736 mmHg 65%
    17:00 +18°C° 0.1 mm 1 mps 736 mmHg 66%
    18:00 +16°C° 0 mm 1 mps 736 mmHg 71%
    19:00 +15°C° 0 mm 1 mps 737 mmHg 76%
    20:00 +13°C° 0 mm 1 mps 737 mmHg 81%
    21:00 +13°C° 0 mm 1 mps 737 mmHg 83%
    22:00 +12°C° 0 mm 1 mps 737 mmHg 85%
    23:00 +12°C° 0 mm 2 mps 737 mmHg 87%
    Show more